Wind_Speed
29 30 29 29 29 30 30 28 28 29 30 30 30 30 30 31 31 31 31 32 32 31 31 31 31 33 34 36 37 37 37 37 37 36 36 36 36 36 36 36 36 37 37 37 38 38 38 38 38 39 39 38 38 38 38 38 38 38 38 38 38 38 38 37 37 37 37 37 37 37 37 37 37 37 37 38 38 38 39 39 39 39 40 41 41 41
29 30 29 28 28 29 30 29 28 29 30 31 32 31 31 31 31 32 31 30 30 30 31 33 34 35 35 36 36 36 36 35 35 35 34 35 35 35 36 36 37 37 37 38 38 37 37 36 36 36 36 35 35 35 35 35 36 36 36 36 36 37 37 37 37 37 37 37 37 37 36 37 37 37 37 38 38 39 38 38 37 37 38 38 38 38
30 30 29 28 28 29 30 30 30 29 30 31 32 32 32 32 32 32 31 29 30 31 32 34 35 36 35 35 34 34 33 33 33 33 34 35 35 36 36 37 37 37 37 37 37 36 35 34 34 34 34 35 35 35 35 35 36 36 36 36 37 37 37 37 37 37 37 37 36 36 36 36 36 37 37 37 37 37 37 36 35 34 34 33 33 32
29 30 30 30 29 28 29 30 31 31 31 31 31 31 31 31 31 31 31 30 32 33 33 33 33 33 32 32 32 32 33 33 33 34 35 35 36 36 36 37 36 36 36 36 35 34 34 34 34 35 35 36 36 36 36 36 37 37 37 37 37 37 37 37 37 37 36 36 36 36 36 35 35 35 35 35 35 35 35 34 33 33 33 32 31 30
29 29 30 30 30 30 29 30 31 31 31 30 30 30 30 30 30 30 31 32 32 33 32 31 30 30 31 31 32 32 33 34 35 36 36 36 36 36 35 35 35 35 35 34 34 34 34 35 35 36 36 37 36 36 36 36 36 36 36 36 37 37 37 37 37 37 37 37 36 36 36 35 35 34 34 34 34 34 34 35 35 35 35 34 33 32
30 29 29 30 31 31 31 31 31 31 30 30 30 30 30 30 30 30 31 33 32 32 31 31 30 30 31 32 33 34 35 35 36 35 35 35 34 34 34 34 34 34 34 34 34 35 36 36 37 37 37 37 36 36 36 36 36 36 36 36 36 36 36 36 37 37 37 37 37 37 37 36 35 35 34 35 35 35 36 37 37 37 36 36 35 35
31 29 29 30 31 32 32 31 30 30 30 30 30 30 30 30 30 31 32 32 32 31 31 31 31 31 31 32 33 34 35 35 34 34 33 33 32 32 32 33 33 33 34 35 36 37 37 37 37 37 37 36 36 36 36 36 36 36 37 36 37 37 37 36 36 36 36 36 37 37 37 37 36 36 35 35 36 36 37 38 38 37 37 36 36 36
32 31 31 31 32 33 32 30 29 29 30 31 31 31 31 31 31 32 33 32 31 31 31 32 32 32 32 32 32 32 33 33 33 32 32 31 31 32 33 33 34 35 35 36 37 37 37 37 37 37 37 36 36 36 36 37 37 37 36 36 37 37 36 36 35 35 35 35 36 36 37 37 37 36 36 36 36 37 37 38 38 37 37 36 36 36
32 33 34 32 32 32 32 31 29 28 29 32 33 33 33 33 33 33 33 32 31 31 31 32 32 32 32 31 31 31 31 32 32 32 31 31 32 33 34 35 36 36 36 37 37 37 37 37 37 36 36 36 36 36 36 36 36 35 35 35 35 35 35 34 34 34 33 34 34 35 35 36 36 36 36 36 36 36 36 37 37 37 37 37 36 36
33 34 34 33 31 30 29 29 29 29 30 32 33 33 33 31 32 33 33 33 33 32 31 30 30 31 32 32 31 31 31 32 32 32 32 32 33 34 35 36 36 36 36 36 36 36 36 36 36 36 36 36 36 35 35 35 35 35 34 34 34 33 33 33 33 33 33 33 33 34 34 35 35 35 35 35 35 35 36 36 37 37 37 37 37 37
34 33 32 31 29 27 26 27 29 31 32 32 32 31 30 30 30 32 34 35 35 33 31 30 29 30 31 32 33 33 33 33 33 33 33 32 33 33 34 35 35 35 35 35 35 35 35 35 35 35 35 35 35 35 35 34 34 34 33 33 33 33 33 33 33 32 32 33 33 33 33 33 34 34 34 34 34 34 35 35 36 36 37 37 37 38
32 30 28 26 25 26 26 28 30 31 31 31 31 31 31 30 30 31 32 34 34 34 33 32 31 31 31 32 33 33 34 32 32 32 31 31 31 31 32 33 34 34 34 34 34 34 34 35 35 35 35 34 34 34 33 33 33 33 33 33 33 33 33 32 32 32 32 32 32 32 32 32 32 33 33 33 33 33 33 34 34 35 36 36 37 37
27 24 24 24 26 27 29 30 31 32 31 31 31 31 32 31 31 31 31 32 33 33 33 34 35 34 32 31 31 32 33 33 31 30 29 29 29 30 31 32 33 33 33 34 35 35 34 34 34 34 34 34 33 33 33 33 33 33 33 33 33 32 32 32 32 32 32 32 32 32 32 32 33 33 33 33 33 33 33 33 34 34 34 35 35 36
24 24 26 28 29 31 32 32 32 32 32 31 31 31 31 31 31 30 30 32 33 33 32 33 35 35 33 30 29 29 30 30 30 29 29 29 29 30 32 34 35 35 34 34 34 35 34 34 34 34 34 33 33 33 33 33 33 33 33 33 32 32 32 32 32 32 33 33 33 33 33 34 34 34 34 34 34 34 34 34 34 34 34 34 34 35
27 29 31 33 34 33 33 32 32 32 31 31 30 30 31 31 30 31 31 33 34 34 33 34 34 34 31 28 26 26 28 29 29 30 31 31 31 32 33 34 35 35 34 34 34 35 34 34 33 33 33 33 33 33 33 33 33 34 33 33 33 33 33 33 34 34 34 34 34 34 34 34 34 34 34 34 34 34 34 34 35 35 35 35 35 35
30 31 32 34 34 33 32 31 30 31 31 31 30 29 30 30 31 32 32 34 34 34 33 33 33 33 32 30 27 26 27 28 30 32 33 34 34 33 33 34 35 35 34 34 34 34 33 33 32 32 33 33 33 33 33 34 34 34 34 34 34 34 34 34 34 34 34 34 34 34 34 34 34 34 34 34 35 35 35 35 35 35 36 36 36 36
31 31 32 32 33 32 31 30 29 29 30 30 29 29 30 32 33 34 34 34 33 32 31 31 32 33 33 33 30 27 27 28 31 33 34 35 36 35 33 33 34 35 34 33 32 32 32 32 32 33 34 34 33 33 34 35 35 35 35 35 35 34 33 33 33 33 33 33 33 33 33 33 33 34 34 34 35 35 35 36 36 36 36 36 36 37
31 31 31 31 31 30 29 29 28 29 29 29 30 31 33 35 34 33 32 31 31 31 31 30 30 31 32 33 32 31 29 30 32 34 35 36 36 35 33 31 32 33 33 32 31 30 31 31 32 32 33 34 35 35 35 35 35 35 35 34 34 33 33 33 33 33 34 34 34 34 34 34 34 34 34 35 35 35 36 36 36 36 36 36 37 37
31 30 29 29 29 28 28 28 28 29 29 31 33 35 36 36 34 32 31 30 30 31 31 31 31 31 31 32 33 33 32 32 33 35 36 37 36 34 32 30 30 32 32 32 31 30 30 31 32 33 34 35 35 35 35 35 34 34 34 34 33 33 34 34 34 34 34 34 35 35 35 35 35 35 35 35 35 35 35 36 36 36 36 37 37 37
29 28 27 26 27 28 29 29 29 30 31 34 36 37 36 34 32 32 31 31 31 31 31 31 31 31 31 32 34 35 34 35 35 35 35 35 34 32 30 29 29 31 32 32 32 32 32 33 34 35 36 36 35 35 34 34 34 34 34 34 34 34 35 35 35 35 35 35 35 35 35 34 34 34 34 35 35 35 35 35 36 36 36 37 37 37
28 28 28 28 28 29 31 32 33 34 34 35 36 35 33 33 33 33 32 32 32 32 31 31 31 31 32 33 35 36 36 35 35 34 33 33 32 31 29 28 28 30 31 32 33 33 33 34 35 36 35 35 34 34 34 34 35 35 35 35 35 34 34 34 34 34 34 34 34 34 34 34 34 34 34 34 34 35 35 35 35 36 36 36 36 37
29 30 30 29 29 30 32 34 35 35 35 34 33 33 33 33 34 34 33 33 32 32 31 31 32 32 33 34 35 35 34 32 32 31 31 31 32 32 29 28 29 30 32 33 34 34 34 34 34 34 34 34 35 35 35 35 35 35 35 35 34 34 33 33 33 33 33 33 33 33 33 33 33 33 33 34 34 34 34 34 35 35 35 36 36 37
28 29 30 30 30 31 32 33 34 34 33 33 33 33 33 33 33 33 33 33 32 33 33 34 34 33 33 34 35 34 32 30 28 28 29 30 32 32 30 29 29 31 32 33 33 33 33 33 33 34 34 35 35 36 36 35 35 34 34 34 33 33 33 33 33 32 32 32 33 33 32 33 33 33 33 34 34 34 35 35 35 36 36 36 37 37
26 27 28 28 29 30 31 32 33 34 34 34 34 33 32 31 31 31 31 31 32 33 33 34 33 32 31 31 31 31 29 27 26 26 27 29 31 31 31 29 30 31 33 32 32 32 32 33 34 34 35 35 35 35 35 35 34 34 33 33 32 32 32 32 32 32 32 32 33 33 34 34 35 35 35 35 35 36 36 36 36 37 37 37 38 38
25 26 26 27 29 30 32 33 34 35 34 33 32 31 29 29 28 28 29 30 30 31 31 30 30 30 29 29 29 29 28 26 24 24 26 29 31 31 31 29 29 31 32 33 33 33 33 34 35 35 34 35 35 34 34 34 33 33 33 32 32 31 31 31 32 32 33 33 34 34 34 35 35 35 35 35 35 35 36 36 36 37 37 38 38 39
24 25 27 30 32 34 35 36 35 33 30 29 27 27 26 27 27 28 28 28 28 28 28 28 28 28 28 28 28 28 28 27 26 25 26 28 30 30 31 29 29 30 33 34 34 34 34 35 35 34 33 33 34 34 34 34 34 33 32 31 31 31 31 31 32 32 32 32 32 33 33 32 33 32 32 33 33 33 34 34 35 36 36 37 37 38
25 28 31 34 36 37 36 33 30 28 25 24 23 22 23 25 27 28 27 26 26 27 27 28 28 28 28 27 27 28 29 29 28 27 26 27 28 29 30 29 29 31 34 35 35 34 34 34 34 33 32 32 33 34 34 34 34 33 32 31 31 31 31 31 31 31 31 31 31 31 31 32 32 32 32 32 32 33 33 34 35 35 36 36 37 38
31 34 37 38 37 34 31 28 25 23 22 21 20 20 21 23 25 26 26 27 27 27 27 27 28 28 28 28 28 29 31 30 28 26 25 25 26 28 29 30 30 31 33 35 36 35 33 32 31 31 30 30 31 32 33 33 33 33 33 32 32 32 31 31 31 31 31 31 31 31 32 32 33 33 33 33 33 34 34 35 36 36 37 37 39 40
36 38 38 36 32 29 26 24 22 21 21 20 20 20 20 22 23 25 26 27 27 27 27 27 27 28 29 29 30 30 30 28 26 25 24 25 27 28 30 30 30 30 32 34 35 35 32 29 27 26 27 29 30 31 32 33 34 34 34 34 34 33 33 32 31 31 31 31 31 32 32 33 33 33 33 33 33 34 34 35 35 36 37 38 39 40
39 38 35 31 27 25 23 23 22 22 21 21 21 21 21 22 23 25 26 27 27 27 27 27 28 29 29 29 29 29 29 27 26 25 26 27 28 29 30 30 30 30 31 32 32 32 32 30 28 26 26 28 30 32 33 34 34 34 35 35 36 35 34 32 32 32 32 32 32 32 32 32 32 32 32 31 32 32 32 33 33 34 35 36 37 38
36 33 30 27 25 24 23 23 23 23 23 23 23 23 23 24 24 25 26 26 26 27 27 28 29 29 29 28 27 26 27 29 29 28 28 29 29 30 30 30 30 30 30 30 29 29 31 33 33 31 30 30 31 33 34 34 33 34 35 36 36 36 34 33 33 33 33 32 32 32 32 32 32 31 31 30 30 30 30 30 30 31 32 34 35 36
31 28 26 26 26 25 24 23 23 23 23 24 25 25 25 25 25 25 26 26 27 28 28 28 29 30 29 29 27 27 28 31 32 31 30 30 30 30 30 30 30 31 30 29 28 28 28 31 35 36 34 33 33 33 34 33 33 33 34 35 36 36 35 34 33 33 33 33 33 33 33 33 32 31 30 30 29 28 27 27 27 28 30 32 33 35
26 26 26 26 26 25 24 24 24 24 24 25 25 25 26 26 26 26 26 27 27 28 27 28 29 30 31 31 31 32 33 34 33 32 31 31 32 32 31 31 31 31 31 30 29 28 29 31 34 36 36 35 34 33 33 32 32 32 33 34 36 36 36 36 36 35 35 35 35 35 34 33 33 32 31 30 29 28 27 26 25 26 28 29 31 33
26 26 26 25 25 25 24 24 24 24 25 26 26 26 26 26 26 26 27 27 27 27 28 28 29 30 31 31 32 34 35 35 33 32 31 32 32 32 32 33 33 33 32 30 29 29 30 31 32 34 35 36 35 34 32 32 32 33 34 35 35 36 37 38 38 38 38 38 37 37 37 35 34 33 32 30 29 28 27 25 25 25 26 27 29 31
26 26 26 25 25 25 25 25 25 25 26 26 27 27 27 27 26 26 26 26 27 27 28 28 29 29 30 31 32 34 35 35 33 32 32 32 34 34 33 33 33 33 32 32 32 31 31 31 32 32 33 34 35 35 33 32 32 34 35 36 36 37 38 39 39 39 39 39 39 38 38 37 37 36 34 33 31 29 28 27 26 26 26 27 29 30
26 26 26 25 26 26 25 25 25 26 27 27 27 27 27 27 26 26 26 26 27 27 28 28 28 29 29 30 32 33 35 35 33 32 31 31 32 34 34 33 33 33 33 33 33 33 32 32 32 33 33 32 33 34 34 34 34 35 36 37 37 38 39 39 39 39 39 39 39 39 39 38 38 37 36 35 33 32 30 29 28 27 27 27 28 30
26 26 25 25 26 26 25 26 26 26 27 28 29 28 28 27 27 26 27 27 27 27 27 27 28 29 29 30 31 32 34 34 33 31 29 29 30 31 33 33 33 32 32 33 33 33 33 32 32 32 32 31 31 32 33 36 37 38 37 37 38 39 39 38 38 39 39 40 40 40 39 39 38 38 37 36 35 33 32 31 29 28 28 27 27 27
25 25 25 25 25 25 25 26 27 27 27 28 29 28 28 27 27 27 28 28 28 28 28 28 28 29 30 30 31 32 33 33 32 30 29 28 28 29 31 32 32 32 32 32 33 33 34 33 32 31 31 31 32 33 35 37 37 37 38 38 39 39 38 38 39 39 39 40 40 40 40 39 39 39 38 37 36 35 34 32 30 29 28 27 27 26
25 25 25 25 25 25 25 26 27 28 28 28 28 28 27 27 28 29 29 29 29 29 29 29 29 30 31 31 32 32 32 31 30 30 29 29 29 29 29 31 31 31 31 31 32 32 32 32 31 31 31 32 34 36 37 37 37 38 39 40 40 39 38 38 39 39 40 40 41 41 41 40 40 39 39 38 38 37 37 35 33 31 30 29 29 27
25 25 25 25 25 25 26 27 27 28 28 28 28 28 27 28 29 30 30 29 29 29 29 29 30 30 31 31 32 31 31 30 30 29 30 30 30 29 29 29 30 31 31 31 31 31 30 31 31 31 32 33 35 36 37 38 37 37 38 39 39 40 40 40 40 40 40 40 41 42 42 41 41 40 40 39 39 38 38 37 35 33 32 32 32 31
25 25 26 26 26 26 26 27 28 28 28 28 29 28 28 29 29 30 31 30 30 30 30 30 30 30 31 31 31 30 30 30 30 30 30 31 30 29 29 28 29 29 30 31 31 31 31 31 31 32 33 34 35 35 36 36 35 35 36 36 38 40 42 41 41 40 41 41 42 42 42 42 42 41 41 40 40 38 37 36 35 34 32 31 31 31
25 25 26 26 26 27 27 28 28 28 28 28 28 28 28 29 29 29 29 30 30 31 31 31 31 31 32 32 31 30 30 30 30 31 31 31 30 30 29 29 29 29 29 30 30 31 31 31 32 33 33 33 34 34 35 35 34 33 34 35 37 40 42 42 41 40 41 42 42 42 42 42 43 43 42 41 40 39 37 35 34 33 32 31 30 30
24 25 26 26 26 27 27 28 29 29 29 28 28 28 29 29 29 29 29 29 29 30 31 31 31 32 34 34 33 32 31 31 31 31 32 31 31 30 29 29 29 29 29 29 30 31 31 31 31 31 31 31 32 33 34 34 33 33 33 34 36 37 38 41 42 42 42 42 42 42 43 43 43 43 43 42 41 39 38 36 34 33 31 30 29 29
25 26 26 26 27 27 27 28 28 28 29 29 29 29 29 30 30 29 29 29 29 30 31 31 32 33 33 33 33 33 33 33 33 32 32 32 31 30 30 30 30 29 29 29 30 31 31 31 30 29 28 28 29 30 31 32 32 33 34 34 35 36 37 39 41 43 43 43 43 43 43 43 44 44 43 42 41 40 38 37 35 33 31 29 27 26
25 26 26 26 26 27 27 28 28 29 29 29 30 30 30 30 30 30 30 30 30 32 32 32 32 32 32 32 32 32 34 35 35 34 34 33 32 31 31 31 30 30 29 29 29 29 30 31 30 28 26 25 26 28 29 30 31 34 35 35 36 37 38 39 40 41 42 43 43 43 43 44 44 44 43 41 40 39 38 37 36 34 31 28 26 24
25 26 26 26 27 27 27 27 28 29 29 30 30 31 31 30 30 30 30 31 32 33 33 32 32 31 31 31 31 33 34 36 36 36 35 35 34 33 32 31 31 30 30 30 30 29 28 28 27 26 25 25 25 26 27 28 31 33 36 36 37 38 39 40 40 40 41 42 42 43 44 44 44 43 41 40 39 39 38 37 36 34 32 29 26 23
26 27 27 27 27 27 28 28 28 29 29 30 31 31 31 31 31 31 31 32 32 33 33 32 32 31 31 32 32 33 34 35 36 36 36 36 35 35 34 33 32 31 31 31 31 30 28 27 25 23 23 23 24 26 27 29 31 33 35 37 37 38 39 39 40 40 41 41 42 43 44 44 44 43 41 40 39 39 39 38 36 34 32 29 27 24
26 26 26 27 27 28 28 28 29 29 30 30 31 32 31 31 31 32 32 32 32 32 32 32 32 32 32 32 32 32 32 33 35 36 36 37 36 35 35 34 33 33 32 32 31 30 29 27 24 21 19 20 22 25 28 30 32 33 34 36 36 37 38 39 40 41 41 42 42 43 43 43 42 42 41 40 39 39 39 38 37 34 32 30 28 26
26 26 27 27 27 28 29 29 29 30 30 31 32 32 32 31 32 32 33 33 32 32 32 32 32 32 32 32 33 33 32 33 34 35 36 36 37 36 36 35 35 34 34 33 32 31 30 28 25 21 19 18 20 24 27 31 33 33 34 35 35 37 38 39 40 41 41 42 42 43 42 42 41 41 40 39 39 38 39 38 37 35 32 30 28 26
26 27 26 27 27 28 29 29 29 30 30 31 32 32 33 32 32 32 32 32 32 32 32 32 32 32 32 32 33 34 34 34 35 35 36 36 36 36 36 35 35 35 34 34 33 32 31 30 27 23 19 19 20 23 26 30 32 34 34 35 35 36 37 39 40 41 41 42 42 42 42 42 41 40 39 39 38 38 38 38 37 35 32 30 28 26
27 27 27 27 27 28 28 29 29 30 30 31 32 32 32 33 33 32 32 32 32 32 32 32 32 31 30 31 32 33 34 34 35 35 35 35 35 35 35 34 34 33 33 33 32 32 31 31 30 28 23 20 20 23 26 28 31 33 34 35 36 36 37 39 40 40 41 41 41 41 41 41 41 40 39 39 38 38 37 38 38 36 32 30 28 27
Wind_Direction
303 304 306 307 306 305 305 306 306 305 305 306 306 305 305 304 303 302 301 301 301 302 303 302 303 303 303 303 302 301 300 299 298 297 297 297 297 296 296 295 295 295 294 293 293 292 292 291 291 290 290 290 289 288 287 286 285 285 284 283 283 282 281 280 280 279 278 277 276 275 275 275 274 274 273 272 271 270 268 267 266 264 263 262 261 260
304 305 305 305 305 304 305 306 305 305 305 305 306 306 305 304 302 302 302 302 303 304 305 305 305 304 302 301 300 299 299 298 298 298 298 297 296 296 295 295 294 294 293 293 292 292 292 292 291 291 291 291 290 289 288 287 286 285 284 284 283 282 281 280 279 278 277 277 276 276 276 275 275 274 273 271 269 268 268 267 266 265 263 262 260 259
305 305 305 305 305 304 304 305 306 306 304 304 305 305 304 303 302 302 304 304 306 306 306 305 305 304 301 300 300 300 300 298 298 298 297 297 296 295 295 294 294 293 293 292 292 293 293 293 293 293 293 292 291 290 289 288 287 286 286 285 284 283 282 281 280 279 278 277 277 277 276 275 274 273 271 269 268 268 268 268 267 266 264 263 262 260
303 303 304 305 305 302 301 303 305 306 305 304 304 304 303 302 303 305 306 306 307 307 305 304 304 303 302 301 301 300 300 299 298 297 297 296 296 295 294 293 293 293 293 292 293 294 294 295 294 294 293 292 291 290 289 289 288 287 286 286 285 284 283 282 282 280 279 278 277 276 276 275 273 272 271 269 269 270 270 270 268 267 266 266 265 264
300 301 302 304 304 303 301 302 304 304 304 303 303 303 304 305 306 307 308 307 307 306 305 304 303 303 302 301 300 300 299 299 298 297 296 296 295 295 294 294 294 294 294 293 293 294 295 295 294 294 293 292 291 290 289 288 288 287 287 286 285 284 283 282 281 280 279 278 277 277 276 276 275 274 273 272 273 273 273 270 269 268 269 269 268 267
298 299 300 301 302 302 302 303 303 303 303 303 303 305 306 308 308 308 307 307 307 306 306 305 304 303 302 301 300 300 299 298 298 297 296 296 296 295 296 296 296 295 294 294 295 295 295 295 294 293 292 291 290 290 289 288 288 287 286 286 285 284 283 281 280 279 278 277 276 277 277 278 278 278 276 276 276 275 273 270 268 269 270 270 269 267
298 298 299 299 300 300 301 301 302 302 303 304 306 308 309 308 308 307 307 307 307 306 306 305 304 303 302 301 301 300 299 299 298 298 298 298 297 297 297 297 296 296 295 295 295 295 294 294 294 293 292 291 291 290 289 289 288 287 287 286 285 283 282 282 281 280 278 276 275 275 277 279 279 279 278 277 276 275 272 269 268 269 270 270 269 267
297 298 299 299 299 300 300 299 300 302 305 308 310 311 310 309 308 308 308 307 306 306 306 306 305 304 303 302 301 301 301 300 300 301 300 300 298 298 298 296 296 295 295 295 295 294 294 294 293 293 292 291 291 290 289 288 288 287 286 286 285 284 283 282 282 280 279 277 276 275 276 277 278 277 277 277 276 274 271 269 269 269 269 269 268 267
294 296 298 299 299 299 299 300 302 305 310 313 313 312 311 310 309 309 309 307 307 306 306 306 305 304 304 303 302 302 302 301 301 301 300 299 298 298 298 297 296 296 295 295 295 295 294 294 293 293 292 292 291 290 290 289 288 287 287 286 285 285 284 283 282 281 280 279 278 277 277 277 276 276 276 276 275 273 271 270 269 269 269 268 268 267
293 295 297 299 298 298 299 303 307 310 313 314 314 312 311 310 310 310 309 308 308 307 307 305 304 304 305 306 305 304 303 301 301 300 299 298 298 298 298 298 297 296 296 296 296 296 295 295 294 292 291 291 291 291 290 290 289 289 288 287 287 286 285 284 283 282 281 280 279 278 278 277 276 275 275 275 274 273 271 270 269 268 268 267 267 266
295 295 296 297 299 301 303 307 309 312 313 312 311 309 308 307 309 309 309 308 308 308 307 306 304 304 305 306 306 306 304 302 301 301 301 300 299 299 299 299 299 298 298 298 298 297 296 296 295 294 293 293 292 292 291 291 290 290 289 288 288 287 286 285 284 282 281 280 279 278 278 277 276 275 275 274 273 272 271 270 269 268 267 267 266 266
297 296 297 299 304 307 309 309 309 310 311 310 309 308 307 308 308 308 307 306 306 307 307 307 305 304 304 304 304 305 305 303 301 302 302 303 302 301 301 302 303 302 301 300 299 298 296 296 295 295 295 294 293 293 292 292 291 290 289 289 288 287 286 285 284 283 282 281 281 280 279 278 278 277 276 275 274 273 272 270 269 268 267 267 266 265
299 301 304 307 308 309 309 309 309 309 309 309 308 308 308 308 308 307 305 303 303 304 305 306 306 306 305 304 304 305 305 304 302 302 302 302 303 303 304 303 302 301 300 300 299 298 297 296 296 296 296 295 294 294 293 292 292 291 290 290 290 289 288 288 286 285 284 284 283 282 281 280 279 278 277 276 275 274 273 272 270 269 268 267 266 265
306 308 309 308 308 307 307 308 308 308 307 307 307 306 306 307 307 306 303 303 303 304 304 303 304 305 306 305 305 306 305 304 303 302 302 302 302 303 303 302 301 300 299 298 298 297 297 297 297 297 297 296 296 296 295 294 294 293 293 292 292 291 290 289 288 287 286 285 284 283 282 281 280 278 277 276 275 274 273 272 271 270 268 267 266 265
308 308 307 305 305 305 306 306 306 306 305 305 305 305 305 306 306 305 305 303 304 305 305 305 305 305 306 306 306 306 305 303 302 302 303 302 302 303 303 301 300 299 299 297 297 297 298 298 297 297 297 297 297 296 296 295 295 296 295 294 293 292 291 290 288 287 286 285 284 283 282 281 280 278 277 276 275 274 273 271 270 269 268 267 266 265
305 305 304 304 304 304 304 304 304 304 304 305 305 305 305 305 305 305 304 303 304 306 307 307 307 307 306 306 307 307 306 304 303 303 303 303 303 303 303 301 300 299 298 297 296 297 298 298 297 297 297 297 297 297 296 297 296 296 295 294 293 292 291 289 288 287 286 285 284 283 282 280 279 278 277 276 275 273 272 271 270 269 268 267 266 265
304 304 303 302 302 303 303 303 303 303 304 304 304 305 305 304 305 305 304 304 304 306 307 308 308 308 308 308 309 309 309 306 305 304 303 303 303 304 303 301 299 299 299 297 296 296 297 298 298 298 298 297 297 297 297 296 295 295 294 293 292 292 291 290 289 288 287 286 284 283 282 280 279 278 277 276 274 273 272 271 270 268 268 267 266 265
303 302 302 301 301 301 302 303 303 303 304 304 305 305 304 305 305 305 305 305 305 306 306 306 305 305 305 306 307 309 309 307 305 304 304 303 303 303 304 302 300 299 298 297 297 297 298 297 298 298 297 296 297 298 297 296 296 295 294 294 293 293 292 291 290 288 287 286 285 283 282 281 279 278 276 275 274 273 272 270 269 268 268 267 266 265
301 300 300 299 300 300 301 302 303 303 303 304 305 305 305 306 306 306 305 305 305 304 304 303 302 301 301 301 303 306 308 307 305 304 303 302 302 303 304 302 300 299 298 299 299 299 298 298 297 297 297 297 298 299 298 298 298 297 296 295 295 294 292 291 290 289 287 286 285 284 282 281 279 278 277 275 274 273 272 271 270 269 268 267 266 265
299 299 298 298 299 300 300 301 302 302 303 305 306 306 305 306 307 306 305 305 304 303 302 301 300 300 301 301 302 304 306 306 305 304 302 301 301 302 303 303 301 300 300 299 300 300 300 299 299 299 300 300 300 300 300 299 298 297 296 295 294 293 292 291 290 289 288 286 285 284 283 281 280 278 277 276 274 273 272 271 270 269 268 267 266 265
298 298 298 299 299 299 300 301 303 305 306 307 307 307 306 306 306 305 305 304 304 303 302 301 300 300 301 301 301 302 304 305 304 303 302 301 301 302 303 304 302 300 299 300 301 301 301 301 301 301 301 301 301 300 299 299 298 297 296 295 295 294 293 292 291 290 289 287 286 284 283 282 280 279 277 276 275 274 272 271 270 269 268 267 266 265
300 301 302 302 301 300 300 303 306 308 308 308 307 306 305 305 305 304 304 304 304 303 302 301 300 299 300 299 300 302 304 304 303 302 302 300 300 302 304 305 303 301 299 300 302 303 304 303 302 301 300 300 299 299 299 298 298 298 297 296 296 295 294 293 292 290 289 287 286 284 283 282 281 279 278 277 276 274 273 272 271 270 269 267 266 265
301 300 302 303 303 303 303 305 306 307 306 305 304 303 302 302 302 302 303 303 303 302 301 300 300 300 300 300 301 303 304 304 303 302 301 299 299 302 305 306 304 302 301 301 303 304 304 302 300 299 299 300 300 300 300 300 299 299 299 298 297 296 294 293 292 291 289 288 287 286 285 283 282 281 280 279 277 276 274 273 272 270 269 268 267 265
300 301 302 303 303 303 302 302 302 302 302 301 301 300 300 300 300 300 301 301 301 301 301 302 302 302 301 302 303 304 305 305 304 302 299 297 297 300 304 305 305 303 302 303 304 303 302 301 301 301 301 302 302 302 302 302 301 300 300 300 298 296 295 294 293 292 291 289 288 287 286 285 283 282 280 279 277 276 274 273 272 270 269 268 267 266
301 301 300 300 299 299 298 298 298 298 299 300 300 301 301 301 301 301 301 301 302 303 303 304 304 303 303 304 305 304 305 306 305 302 300 299 299 300 304 305 304 303 303 304 305 305 303 303 302 302 302 302 302 303 303 304 303 303 301 300 300 298 297 295 294 293 291 290 288 287 285 283 282 280 279 277 276 275 273 272 271 269 268 267 266 265
300 299 298 298 298 298 299 299 299 299 300 300 300 301 302 303 304 304 304 304 304 305 306 305 304 303 304 305 305 305 306 307 306 304 301 300 299 300 303 306 305 304 304 305 306 306 305 304 303 302 302 302 304 306 307 308 309 308 306 304 302 300 298 296 295 293 291 290 288 287 285 284 282 281 279 278 276 275 273 272 271 270 269 268 267 265
300 299 300 301 302 303 303 303 303 303 302 302 302 304 306 306 306 305 304 304 305 306 306 305 304 305 306 305 304 304 306 307 307 306 303 301 299 299 303 307 308 307 306 306 306 307 306 304 304 303 303 305 307 309 311 312 312 310 308 306 304 302 301 300 299 297 296 295 293 291 290 288 286 285 283 281 279 277 276 274 273 272 271 270 269 268
303 304 304 305 306 307 308 308 307 307 308 309 311 312 310 308 306 304 303 305 308 308 306 304 304 304 305 305 304 304 306 307 307 308 306 303 301 300 304 308 309 309 308 308 308 308 306 305 304 304 305 307 308 309 310 312 312 310 309 309 308 307 306 306 305 304 302 301 299 296 294 292 290 288 286 284 282 280 277 276 274 273 272 271 270 269
306 307 307 308 309 311 312 313 313 314 317 318 319 318 314 310 306 305 305 309 310 309 306 304 303 302 302 303 304 305 306 306 308 310 309 307 303 303 307 309 310 311 311 310 310 310 308 306 305 306 306 307 308 308 309 310 311 312 313 314 314 313 312 310 310 308 306 304 302 299 297 295 292 290 288 285 283 280 278 275 274 272 271 270 268 267
308 308 310 312 315 318 319 319 320 321 323 324 323 322 319 316 313 311 311 313 311 308 305 304 303 302 302 304 305 306 306 308 310 312 312 309 306 306 309 310 310 310 312 313 313 312 311 310 309 308 308 308 308 308 308 309 311 313 314 316 316 316 315 313 312 311 309 306 305 303 302 300 298 295 292 289 285 282 279 276 274 273 270 269 267 265
309 311 315 320 323 324 324 323 323 323 325 325 326 326 325 323 320 317 314 313 310 307 305 303 302 302 303 303 303 303 303 306 311 315 313 309 306 306 309 309 309 310 312 312 312 311 311 311 312 312 311 310 309 309 309 309 310 312 313 314 315 315 315 315 313 311 310 309 308 308 307 306 305 303 300 297 292 288 285 281 277 274 271 269 267 265
313 318 323 326 327 326 325 324 323 323 324 326 327 328 327 325 322 318 315 313 312 310 306 303 302 302 302 300 298 297 298 303 311 316 314 310 306 306 308 308 308 309 310 310 307 305 305 307 309 311 312 311 310 310 310 310 310 311 312 313 313 314 316 316 315 313 311 311 312 313 312 312 311 310 309 306 303 299 295 289 283 277 273 270 267 266
321 325 326 327 327 326 325 324 323 323 324 326 327 326 326 324 322 320 318 317 315 312 308 304 303 302 301 299 298 297 299 304 312 317 316 310 307 306 308 308 308 308 309 308 306 303 300 300 304 308 310 310 310 310 310 311 311 312 313 312 313 315 317 319 318 317 316 317 318 318 318 318 318 317 316 314 311 308 304 299 291 283 277 272 269 267
325 326 326 326 326 326 326 326 325 324 324 326 326 325 325 323 322 322 321 320 318 315 311 307 304 302 301 300 299 299 302 308 316 321 318 312 308 306 307 307 307 307 308 307 307 305 302 301 302 304 307 309 309 309 310 311 313 314 314 314 314 316 319 321 322 322 323 323 324 324 325 324 324 323 321 319 317 314 311 306 302 294 285 277 272 270
325 325 325 325 326 326 327 327 327 327 326 325 325 325 324 323 323 323 323 322 320 319 316 312 309 305 302 300 299 300 304 313 321 324 322 316 312 309 307 306 306 307 307 307 307 306 305 304 303 304 305 306 308 310 312 313 314 314 315 316 317 318 321 324 325 326 327 327 327 328 328 328 327 326 325 323 321 319 315 311 308 302 294 284 276 271
323 323 324 325 325 326 326 326 327 327 327 327 326 325 325 326 326 326 325 324 323 323 321 319 317 313 308 304 301 302 307 316 323 327 326 322 317 312 308 305 306 307 306 305 306 305 305 304 305 306 305 304 305 308 312 315 316 316 317 319 321 323 325 327 328 329 329 328 328 329 329 329 327 326 326 325 324 321 318 314 310 306 301 294 285 275
322 322 323 323 325 325 324 326 327 327 326 327 328 327 328 329 329 328 329 328 328 327 325 324 323 321 318 314 310 309 314 320 326 330 331 329 324 316 309 307 307 307 306 304 304 305 304 304 304 305 305 304 303 304 309 313 316 318 318 321 323 324 327 330 332 331 329 329 328 329 329 328 327 326 326 326 325 323 320 316 313 309 306 302 295 287
322 322 322 323 323 324 324 325 326 327 326 327 328 329 331 332 332 332 331 331 332 331 328 326 325 325 324 323 321 322 323 326 330 333 335 334 330 322 314 310 310 311 310 308 306 306 304 302 302 302 303 303 303 304 306 310 313 315 319 323 325 326 328 331 332 331 330 329 329 330 330 329 328 327 327 327 326 323 320 317 315 313 309 305 301 296
322 322 322 323 323 323 324 325 327 328 327 328 329 330 332 334 335 335 334 333 332 331 330 328 327 327 327 328 328 328 329 331 333 336 337 337 334 329 321 315 312 313 314 313 311 308 304 300 298 298 299 300 302 304 307 309 311 314 320 324 327 328 330 331 331 331 331 330 330 330 330 330 330 328 327 326 325 322 320 318 316 314 312 308 304 300
322 322 322 323 324 326 327 327 328 329 329 330 331 333 333 334 335 335 335 333 331 331 330 330 329 329 329 329 329 330 332 335 337 339 339 339 337 333 327 319 316 316 317 316 313 309 303 300 298 297 297 297 299 302 306 309 312 316 320 321 322 326 330 331 332 332 332 331 330 329 329 330 329 328 327 325 324 322 320 318 316 315 313 309 305 301
323 322 323 325 328 329 330 330 330 330 331 331 332 332 332 333 332 332 332 331 330 330 331 331 330 330 331 331 333 334 336 338 340 340 340 340 338 335 331 325 322 321 319 317 314 310 307 302 300 299 299 299 300 301 304 308 313 318 319 318 320 324 329 331 331 331 332 331 331 330 329 329 329 328 327 326 324 323 322 320 318 316 314 310 305 300
322 323 324 327 329 331 332 333 334 334 334 332 331 330 331 332 331 330 328 328 328 329 331 331 329 328 330 334 338 341 342 341 341 340 340 340 339 337 333 330 328 326 322 317 314 311 310 307 304 302 302 302 302 302 304 309 316 320 321 321 323 325 328 330 331 332 331 331 331 332 331 329 329 328 327 326 325 325 326 324 321 318 315 312 307 302
323 323 326 329 331 331 333 335 336 336 336 334 332 331 332 332 331 329 328 326 326 327 329 330 329 328 329 332 336 341 343 343 342 340 340 340 339 337 335 334 332 329 325 319 315 314 314 313 310 308 308 307 305 303 303 309 316 322 324 325 325 322 320 324 330 333 333 333 333 333 332 331 330 329 327 326 325 325 325 324 323 321 319 315 311 306
325 327 330 331 332 332 333 335 336 337 336 333 332 332 333 334 333 331 329 327 326 327 329 331 331 331 329 328 330 334 338 341 342 342 341 341 340 338 337 335 334 333 329 324 319 317 318 317 316 315 315 312 308 306 306 311 316 321 325 328 327 322 317 321 327 331 333 334 335 335 334 333 331 329 327 326 325 325 324 324 323 323 323 321 316 311
328 329 330 331 332 332 333 334 336 336 335 333 333 333 333 334 334 333 332 329 328 330 331 333 332 330 326 326 327 330 333 337 340 341 342 341 340 339 338 337 336 335 333 329 326 322 319 317 318 321 322 318 313 310 310 314 319 323 326 329 329 326 324 326 329 330 331 333 334 336 337 336 333 329 326 325 324 324 324 324 324 324 325 324 322 317
328 328 329 331 331 331 332 333 334 335 334 333 333 333 334 335 335 334 333 332 331 332 334 335 333 329 325 324 325 328 331 333 336 338 339 339 340 340 340 339 338 336 334 333 331 329 326 323 323 324 324 322 319 318 319 320 322 324 327 330 330 329 328 330 331 332 332 333 334 336 339 338 334 329 325 324 324 325 326 326 327 327 328 328 327 324
328 328 329 329 330 331 332 333 333 332 332 332 333 335 336 336 336 335 334 334 334 334 335 336 334 330 327 326 327 328 328 329 331 333 335 337 338 339 339 339 339 338 336 335 334 333 333 332 332 330 325 321 319 322 327 329 329 327 328 329 330 329 327 329 331 334 335 335 336 338 340 338 334 330 327 326 326 326 328 330 331 332 332 332 331 330
328 328 330 331 331 331 332 332 332 331 331 332 334 336 337 338 337 335 334 335 336 335 335 334 333 331 329 329 329 329 328 327 328 330 333 335 337 338 339 339 339 339 338 338 337 337 337 337 338 336 331 325 321 323 329 333 333 331 330 330 329 328 327 329 333 336 337 338 340 341 341 338 334 330 329 328 327 327 329 331 334 336 337 337 336 334
330 331 331 332 332 332 332 333 333 332 332 333 335 336 338 339 339 337 335 336 336 336 334 333 332 331 330 329 331 331 329 328 329 330 332 335 336 337 338 339 339 339 339 338 338 339 339 340 341 341 338 335 330 329 330 332 333 332 331 331 329 328 328 331 334 337 338 339 341 343 343 340 337 334 332 329 328 328 330 333 336 339 341 342 341 339
333 334 333 332 331 330 332 332 333 333 334 334 335 335 337 339 340 340 338 337 337 336 335 334 333 331 329 329 330 330 329 329 329 330 333 335 337 338 338 339 339 338 337 337 338 338 339 340 341 344 344 342 338 333 330 329 330 331 331 332 332 332 331 332 335 338 339 340 341 343 343 342 341 339 337 333 331 331 333 335 338 342 346 348 347 345
336 336 335 334 333 333 333 334 335 335 335 335 335 335 336 338 340 340 340 338 337 337 337 337 335 331 328 327 328 328 329 329 329 330 332 336 338 338 338 339 339 338 336 335 336 336 337 337 338 340 345 346 342 336 330 327 328 330 331 334 336 336 334 334 336 339 340 341 341 342 343 343 342 342 340 338 336 335 335 336 339 345 351 354 355 355
Height
1414 1412 1410 1410 1408 1406 1404 1404 1403 1401 1398 1397 1396 1395 1394 1392 1391 1389 1388 1386 1385 1383 1381 1380 1378 1377 1375 1374 1372 1371 1370 1368 1367 1365 1364 1362 1361 1360 1358 1357 1356 1354 1353 1352 1350 1349 1348 1346 1345 1343 1342 1340 1339 1338 1337 1336 1335 1335 1334 1333 1332 1331 1330 1330 1329 1329 1328 1328 1328 1327 1327 1326 1326 1325 1325 1324 1324 1324 1324 1323 1323 1323 1323 1322 1322 1322
1412 1410 1409 1408 1407 1405 1402 1401 1401 1400 1398 1395 1394 1393 1392 1390 1388 1386 1385 1384 1383 1381 1380 1378 1376 1375 1374 1372 1370 1368 1366 1365 1363 1362 1360 1359 1358 1357 1355 1354 1353 1351 1350 1349 1347 1345 1344 1343 1341 1340 1339 1337 1336 1335 1334 1333 1332 1331 1330 1330 1329 1328 1327 1327 1326 1325 1325 1324 1324 1324 1323 1323 1322 1322 1321 1321 1320 1320 1320 1319 1319 1319 1319 1319 1318 1318
1411 1409 1407 1407 1406 1404 1401 1399 1398 1398 1397 1394 1392 1390 1389 1387 1385 1384 1383 1381 1380 1379 1378 1376 1375 1373 1370 1368 1366 1365 1363 1362 1360 1359 1358 1357 1355 1354 1353 1351 1350 1348 1347 1345 1344 1342 1341 1340 1338 1337 1336 1335 1333 1332 1331 1330 1329 1328 1327 1326 1325 1325 1324 1323 1322 1322 1321 1321 1320 1320 1320 1319 1318 1318 1317 1317 1316 1315 1315 1315 1315 1316 1315 1315 1315 1314
1411 1408 1405 1405 1403 1402 1400 1398 1396 1395 1394 1392 1390 1388 1387 1385 1384 1382 1381 1380 1378 1377 1375 1374 1372 1370 1367 1365 1364 1362 1361 1360 1358 1357 1355 1354 1353 1351 1350 1348 1346 1345 1343 1342 1340 1339 1338 1337 1335 1334 1333 1332 1330 1329 1328 1327 1326 1325 1324 1323 1322 1321 1320 1319 1319 1318 1318 1317 1317 1316 1315 1315 1314 1314 1313 1313 1312 1312 1311 1311 1311 1311 1311 1311 1311 1311
1410 1408 1405 1403 1401 1399 1398 1396 1395 1393 1391 1390 1388 1386 1385 1383 1382 1380 1379 1378 1376 1374 1372 1371 1369 1367 1366 1364 1362 1360 1359 1357 1355 1354 1353 1351 1350 1348 1346 1345 1343 1341 1340 1339 1337 1336 1335 1334 1333 1331 1330 1329 1327 1326 1325 1324 1323 1322 1320 1320 1319 1318 1317 1316 1315 1315 1314 1313 1313 1312 1311 1310 1310 1310 1309 1309 1309 1308 1308 1308 1307 1307 1307 1307 1307 1307
1408 1407 1405 1402 1400 1397 1395 1394 1393 1391 1389 1387 1386 1385 1383 1381 1380 1379 1377 1375 1373 1372 1370 1369 1367 1365 1364 1362 1360 1358 1356 1354 1352 1351 1349 1347 1346 1344 1343 1341 1340 1339 1337 1336 1335 1334 1332 1331 1330 1328 1327 1325 1324 1323 1322 1320 1320 1318 1317 1316 1315 1314 1313 1313 1312 1311 1310 1310 1309 1308 1307 1307 1306 1305 1305 1305 1305 1305 1304 1304 1304 1304 1304 1304 1304 1304
1405 1405 1404 1401 1398 1395 1394 1392 1391 1389 1387 1385 1384 1383 1381 1380 1379 1377 1375 1373 1371 1370 1368 1366 1365 1363 1361 1360 1357 1355 1353 1350 1349 1347 1346 1344 1343 1341 1340 1339 1337 1336 1335 1333 1332 1330 1329 1328 1326 1325 1324 1322 1321 1320 1318 1317 1316 1315 1314 1313 1312 1311 1310 1309 1308 1307 1306 1306 1305 1305 1304 1303 1302 1302 1301 1301 1301 1301 1301 1301 1301 1301 1301 1300 1300 1301
1403 1401 1401 1400 1397 1394 1391 1390 1390 1388 1386 1385 1382 1380 1379 1377 1376 1375 1373 1372 1370 1368 1366 1364 1362 1360 1359 1357 1355 1352 1350 1348 1346 1345 1343 1342 1340 1339 1338 1336 1335 1333 1332 1330 1329 1327 1326 1325 1323 1321 1320 1319 1318 1316 1315 1314 1313 1311 1310 1309 1308 1307 1306 1305 1304 1304 1303 1302 1302 1301 1300 1300 1299 1299 1298 1298 1298 1298 1298 1298 1298 1298 1297 1297 1297 1297
1402 1399 1397 1397 1395 1393 1390 1388 1387 1387 1386 1384 1381 1379 1377 1374 1373 1372 1371 1369 1368 1367 1365 1362 1360 1357 1355 1354 1352 1350 1348 1346 1345 1343 1342 1340 1339 1337 1335 1333 1332 1330 1329 1327 1325 1324 1322 1321 1320 1318 1317 1315 1314 1313 1311 1310 1309 1308 1307 1305 1305 1304 1303 1302 1301 1300 1300 1299 1298 1298 1297 1296 1296 1295 1295 1295 1295 1294 1294 1294 1294 1294 1294 1294 1294 1294
1401 1399 1396 1394 1393 1392 1390 1387 1385 1385 1385 1383 1381 1379 1377 1374 1371 1369 1367 1366 1365 1364 1363 1360 1358 1355 1353 1351 1350 1348 1346 1344 1342 1341 1340 1338 1336 1335 1332 1330 1329 1327 1325 1324 1322 1320 1319 1317 1316 1315 1313 1312 1310 1309 1308 1307 1305 1304 1303 1302 1301 1300 1299 1299 1298 1297 1296 1296 1295 1295 1294 1293 1293 1292 1292 1291 1291 1291 1291 1291 1290 1290 1290 1290 1290 1290
1399 1397 1395 1393 1391 1390 1389 1387 1385 1384 1383 1382 1380 1378 1377 1375 1372 1369 1365 1363 1361 1360 1359 1358 1356 1354 1351 1349 1347 1345 1344 1341 1339 1338 1337 1335 1333 1331 1329 1327 1325 1323 1321 1320 1318 1317 1315 1314 1313 1311 1310 1308 1307 1306 1305 1303 1302 1301 1300 1299 1298 1297 1296 1295 1295 1294 1293 1292 1292 1291 1290 1290 1289 1289 1288 1288 1287 1287 1287 1287 1287 1287 1287 1287 1287 1287
1397 1395 1394 1392 1391 1389 1388 1386 1385 1383 1382 1381 1378 1376 1374 1374 1372 1370 1366 1362 1359 1358 1356 1355 1354 1352 1351 1348 1345 1343 1341 1339 1337 1335 1333 1332 1330 1328 1326 1324 1322 1320 1319 1317 1315 1313 1312 1310 1309 1308 1306 1305 1304 1302 1301 1300 1299 1298 1296 1295 1295 1294 1293 1292 1291 1290 1290 1289 1288 1288 1287 1286 1286 1285 1285 1285 1284 1284 1283 1283 1283 1283 1283 1283 1283 1283
1396 1395 1393 1391 1390 1389 1387 1385 1383 1382 1380 1379 1377 1375 1372 1371 1370 1368 1365 1362 1359 1357 1355 1352 1350 1349 1348 1347 1345 1342 1339 1336 1334 1333 1331 1330 1328 1326 1324 1322 1320 1318 1316 1314 1312 1310 1309 1307 1306 1304 1303 1302 1300 1299 1298 1297 1295 1294 1293 1292 1291 1290 1289 1289 1288 1287 1286 1286 1285 1285 1284 1283 1283 1282 1282 1281 1281 1280 1280 1279 1279 1279 1279 1279 1279 1279
1395 1394 1392 1390 1389 1388 1386 1385 1383 1380 1379 1378 1376 1374 1371 1369 1368 1366 1363 1360 1357 1355 1354 1350 1348 1346 1345 1344 1343 1341 1338 1335 1333 1331 1330 1328 1327 1325 1323 1320 1318 1315 1314 1312 1310 1307 1306 1305 1303 1301 1300 1298 1297 1295 1295 1293 1292 1291 1290 1289 1288 1287 1286 1285 1285 1284 1283 1283 1282 1281 1281 1280 1279 1279 1279 1278 1277 1277 1276 1276 1276 1275 1275 1275 1275 1275
1395 1393 1391 1389 1388 1386 1385 1384 1381 1379 1377 1376 1374 1372 1370 1368 1366 1364 1361 1358 1355 1353 1352 1349 1346 1344 1343 1343 1342 1340 1338 1335 1332 1329 1327 1326 1325 1324 1322 1319 1315 1313 1312 1310 1307 1305 1303 1302 1300 1298 1296 1295 1294 1293 1292 1290 1289 1288 1287 1286 1285 1284 1283 1282 1282 1281 1280 1279 1279 1278 1277 1277 1276 1275 1275 1274 1274 1273 1273 1273 1272 1272 1272 1272 1271 1271
1394 1392 1390 1388 1386 1384 1383 1382 1380 1378 1375 1374 1372 1370 1368 1366 1364 1362 1360 1357 1354 1352 1350 1347 1344 1341 1339 1340 1340 1339 1337 1334 1330 1328 1325 1323 1322 1321 1320 1317 1313 1310 1309 1307 1305 1302 1301 1299 1298 1296 1294 1292 1291 1290 1289 1288 1286 1285 1284 1283 1282 1281 1280 1279 1278 1278 1277 1276 1275 1274 1274 1273 1273 1272 1271 1271 1270 1270 1269 1269 1269 1268 1268 1268 1268 1268
1392 1391 1389 1386 1384 1382 1381 1380 1379 1376 1374 1372 1370 1369 1367 1365 1362 1360 1358 1355 1353 1351 1349 1347 1344 1340 1336 1335 1335 1336 1336 1333 1329 1326 1323 1320 1319 1318 1318 1315 1311 1308 1305 1304 1302 1300 1299 1297 1295 1293 1292 1290 1289 1288 1286 1285 1284 1282 1281 1280 1279 1278 1277 1276 1275 1274 1274 1273 1272 1271 1270 1270 1269 1269 1268 1267 1267 1266 1266 1265 1265 1264 1264 1264 1264 1264
1390 1389 1387 1385 1383 1381 1379 1378 1376 1375 1372 1370 1368 1366 1365 1363 1361 1359 1357 1355 1353 1351 1348 1346 1344 1341 1338 1334 1332 1333 1334 1331 1327 1324 1321 1318 1316 1315 1314 1313 1310 1306 1303 1301 1300 1298 1297 1295 1293 1292 1290 1288 1287 1285 1284 1282 1281 1279 1278 1277 1276 1274 1274 1273 1272 1271 1270 1269 1269 1268 1267 1266 1265 1265 1264 1264 1263 1263 1262 1262 1261 1261 1260 1260 1260 1260
1388 1387 1385 1383 1381 1379 1378 1376 1375 1373 1371 1369 1366 1364 1361 1360 1359 1357 1355 1354 1352 1350 1348 1345 1343 1340 1338 1335 1332 1331 1331 1330 1326 1322 1319 1316 1313 1311 1311 1310 1307 1304 1301 1300 1298 1297 1295 1293 1291 1289 1287 1285 1284 1282 1280 1279 1278 1276 1275 1274 1273 1272 1270 1269 1269 1268 1267 1266 1265 1264 1264 1263 1262 1261 1260 1260 1259 1259 1258 1258 1258 1257 1257 1256 1256 1256
1386 1385 1384 1382 1380 1377 1375 1374 1373 1371 1370 1367 1365 1363 1360 1358 1357 1356 1354 1352 1350 1349 1347 1345 1342 1339 1337 1334 1331 1329 1329 1327 1325 1321 1317 1314 1311 1309 1309 1308 1305 1302 1299 1297 1296 1295 1293 1290 1288 1286 1284 1282 1280 1279 1278 1276 1275 1274 1272 1271 1270 1269 1267 1266 1265 1264 1263 1262 1261 1260 1260 1259 1258 1257 1257 1256 1255 1255 1254 1254 1254 1253 1253 1253 1252 1252
1384 1382 1381 1380 1379 1376 1374 1372 1370 1370 1368 1366 1364 1362 1360 1357 1355 1354 1352 1350 1349 1347 1345 1343 1340 1338 1335 1333 1330 1327 1327 1325 1323 1319 1315 1312 1309 1307 1307 1306 1304 1300 1297 1295 1294 1292 1290 1288 1285 1283 1281 1279 1278 1276 1275 1274 1272 1270 1269 1268 1267 1265 1264 1263 1262 1261 1260 1259 1258 1257 1256 1255 1254 1254 1253 1252 1252 1251 1250 1250 1250 1249 1249 1249 1248 1248
1383 1380 1379 1379 1377 1375 1373 1370 1369 1367 1366 1365 1363 1361 1359 1356 1354 1352 1350 1348 1346 1345 1343 1341 1339 1336 1334 1332 1329 1326 1325 1324 1322 1319 1315 1311 1307 1305 1305 1305 1302 1299 1295 1293 1291 1289 1288 1285 1283 1281 1279 1277 1275 1274 1272 1270 1269 1267 1266 1265 1264 1262 1261 1260 1259 1257 1256 1255 1254 1254 1253 1252 1251 1250 1249 1249 1248 1247 1247 1246 1246 1245 1245 1245 1244 1244
1381 1379 1378 1376 1375 1373 1371 1369 1367 1366 1365 1364 1362 1360 1358 1356 1353 1351 1349 1347 1345 1343 1340 1339 1336 1334 1332 1330 1327 1325 1324 1323 1321 1318 1315 1310 1306 1303 1303 1302 1300 1297 1293 1291 1289 1287 1285 1283 1280 1278 1276 1274 1272 1271 1269 1268 1266 1265 1263 1262 1260 1259 1258 1257 1255 1254 1253 1252 1251 1250 1249 1248 1247 1247 1246 1245 1244 1244 1243 1243 1242 1242 1241 1241 1240 1240
1380 1378 1376 1375 1373 1372 1371 1369 1367 1365 1363 1362 1360 1358 1356 1354 1352 1350 1348 1346 1344 1341 1339 1336 1334 1332 1330 1328 1326 1324 1322 1321 1320 1317 1314 1310 1305 1302 1301 1300 1298 1295 1291 1290 1288 1286 1283 1280 1278 1275 1274 1271 1269 1268 1266 1265 1263 1262 1260 1259 1258 1256 1255 1254 1252 1251 1250 1249 1248 1247 1246 1245 1244 1243 1243 1242 1241 1240 1239 1239 1238 1238 1237 1237 1236 1236
1378 1376 1375 1374 1372 1371 1369 1367 1365 1363 1362 1360 1358 1356 1354 1352 1350 1348 1346 1344 1342 1340 1337 1335 1333 1330 1327 1326 1324 1321 1320 1319 1318 1316 1313 1309 1305 1301 1300 1299 1297 1294 1290 1287 1285 1284 1281 1278 1275 1273 1271 1269 1267 1265 1264 1262 1260 1259 1257 1256 1254 1253 1252 1251 1249 1248 1247 1246 1245 1244 1243 1242 1240 1239 1239 1238 1237 1236 1235 1235 1234 1234 1233 1232 1232 1231
1377 1375 1374 1372 1370 1368 1366 1365 1363 1361 1360 1358 1356 1354 1352 1350 1348 1346 1344 1342 1341 1339 1336 1334 1331 1329 1326 1324 1322 1320 1318 1317 1316 1315 1312 1309 1304 1300 1298 1298 1296 1293 1288 1285 1283 1282 1279 1276 1273 1270 1269 1266 1264 1263 1261 1259 1257 1256 1254 1253 1252 1250 1249 1248 1247 1245 1244 1243 1241 1240 1239 1238 1237 1235 1234 1234 1233 1232 1231 1231 1230 1229 1229 1228 1228 1227
1374 1373 1371 1369 1367 1365 1363 1361 1360 1358 1357 1356 1355 1353 1351 1349 1347 1345 1342 1341 1339 1337 1335 1333 1330 1327 1325 1323 1321 1318 1316 1315 1314 1312 1311 1308 1304 1300 1297 1296 1295 1291 1287 1283 1281 1279 1277 1274 1271 1269 1266 1264 1262 1260 1258 1256 1255 1253 1252 1251 1249 1248 1246 1245 1243 1242 1240 1239 1238 1236 1235 1234 1233 1232 1231 1230 1229 1228 1227 1227 1226 1225 1225 1224 1224 1222
1371 1369 1367 1365 1364 1362 1360 1358 1357 1355 1354 1353 1352 1351 1350 1348 1346 1343 1341 1339 1338 1336 1334 1332 1329 1326 1324 1322 1319 1317 1315 1313 1312 1310 1309 1307 1303 1300 1296 1295 1293 1291 1287 1282 1278 1276 1275 1273 1270 1267 1265 1263 1261 1259 1257 1255 1253 1251 1249 1248 1246 1245 1243 1242 1240 1238 1237 1235 1234 1233 1231 1230 1229 1228 1227 1226 1225 1224 1224 1223 1222 1222 1221 1220 1219 1218
1368 1366 1365 1363 1361 1359 1357 1356 1354 1353 1351 1350 1350 1349 1348 1346 1345 1342 1340 1338 1336 1335 1333 1331 1329 1326 1323 1321 1318 1315 1313 1312 1310 1310 1308 1305 1302 1299 1296 1295 1292 1290 1287 1282 1276 1273 1271 1270 1269 1267 1264 1262 1260 1258 1255 1253 1251 1249 1246 1244 1243 1241 1240 1238 1237 1235 1234 1232 1231 1230 1228 1227 1226 1224 1224 1222 1221 1220 1219 1219 1218 1218 1217 1216 1214 1213
1365 1364 1362 1360 1359 1357 1355 1353 1352 1350 1349 1348 1347 1347 1345 1344 1342 1340 1338 1337 1335 1334 1332 1330 1327 1325 1323 1320 1317 1314 1311 1310 1309 1308 1307 1304 1300 1297 1295 1293 1291 1289 1287 1283 1277 1271 1267 1266 1266 1266 1264 1261 1258 1256 1253 1251 1249 1246 1244 1241 1239 1238 1237 1235 1234 1233 1231 1230 1228 1227 1225 1224 1222 1221 1219 1219 1217 1216 1215 1214 1214 1214 1213 1211 1210 1209
1363 1361 1359 1357 1356 1354 1353 1351 1350 1348 1347 1346 1345 1344 1343 1342 1340 1339 1337 1335 1334 1333 1330 1328 1326 1324 1322 1320 1317 1313 1310 1307 1307 1307 1305 1303 1299 1296 1294 1292 1290 1288 1287 1285 1281 1274 1267 1262 1261 1261 1262 1259 1257 1254 1251 1249 1247 1244 1242 1239 1237 1235 1234 1233 1232 1230 1229 1227 1225 1224 1222 1220 1219 1217 1216 1214 1213 1212 1211 1210 1210 1210 1209 1207 1205 1204
1361 1359 1357 1355 1354 1352 1351 1350 1348 1347 1345 1344 1343 1342 1341 1340 1339 1337 1335 1334 1333 1331 1329 1327 1325 1323 1321 1320 1317 1314 1309 1306 1305 1305 1304 1302 1298 1295 1294 1292 1289 1287 1286 1285 1283 1279 1273 1265 1259 1257 1257 1256 1254 1252 1249 1247 1245 1243 1241 1238 1236 1234 1232 1231 1229 1228 1225 1224 1222 1220 1219 1217 1215 1213 1212 1210 1209 1208 1207 1206 1206 1205 1204 1203 1201 1199
1359 1357 1356 1354 1353 1351 1350 1349 1347 1346 1344 1343 1341 1340 1339 1338 1337 1335 1334 1332 1331 1329 1328 1325 1323 1321 1319 1317 1315 1312 1309 1305 1304 1303 1303 1301 1298 1295 1292 1290 1288 1286 1284 1283 1281 1279 1275 1269 1263 1258 1255 1253 1252 1250 1248 1245 1244 1242 1239 1237 1234 1232 1230 1229 1227 1225 1223 1220 1219 1216 1215 1213 1211 1210 1208 1207 1205 1204 1203 1202 1201 1201 1200 1199 1198 1196
1357 1356 1354 1353 1351 1350 1349 1347 1346 1345 1343 1342 1340 1339 1338 1336 1335 1333 1332 1330 1329 1327 1326 1324 1322 1320 1317 1315 1313 1310 1306 1304 1303 1302 1301 1300 1297 1294 1291 1289 1287 1285 1282 1280 1279 1276 1274 1270 1265 1261 1256 1251 1249 1248 1246 1244 1242 1240 1238 1236 1234 1231 1228 1226 1224 1222 1219 1217 1215 1213 1211 1209 1207 1206 1204 1203 1201 1200 1199 1198 1197 1197 1196 1195 1194 1193
1356 1355 1353 1352 1350 1349 1347 1346 1345 1343 1342 1340 1339 1338 1336 1335 1333 1331 1330 1329 1327 1325 1324 1322 1320 1319 1316 1314 1311 1308 1305 1302 1301 1300 1300 1298 1296 1293 1290 1288 1286 1284 1281 1279 1277 1274 1271 1268 1265 1262 1258 1252 1247 1245 1244 1243 1241 1239 1236 1234 1232 1229 1227 1224 1222 1219 1217 1214 1212 1210 1208 1206 1204 1202 1200 1199 1198 1196 1195 1194 1193 1192 1192 1191 1190 1189
1355 1354 1352 1351 1349 1348 1346 1345 1343 1342 1340 1339 1337 1336 1335 1333 1331 1330 1328 1327 1325 1324 1322 1320 1318 1316 1315 1313 1310 1307 1304 1301 1300 1299 1298 1297 1295 1292 1290 1287 1285 1283 1281 1278 1275 1273 1270 1266 1263 1260 1258 1253 1248 1244 1241 1240 1239 1237 1234 1232 1230 1228 1225 1223 1220 1218 1215 1212 1210 1207 1205 1203 1201 1199 1197 1196 1194 1193 1192 1190 1189 1188 1187 1187 1186 1185
1355 1353 1351 1350 1348 1347 1345 1344 1342 1340 1339 1337 1336 1334 1333 1331 1330 1328 1326 1325 1323 1321 1320 1318 1316 1314 1312 1311 1309 1306 1303 1300 1298 1297 1296 1295 1293 1291 1289 1285 1283 1282 1280 1278 1274 1272 1269 1266 1262 1259 1256 1253 1249 1245 1240 1238 1236 1234 1232 1230 1228 1225 1223 1221 1219 1216 1214 1211 1208 1205 1203 1201 1199 1197 1194 1193 1191 1190 1188 1187 1185 1184 1183 1182 1181 1180
1354 1352 1350 1349 1348 1346 1344 1343 1341 1340 1338 1336 1335 1333 1331 1329 1328 1326 1324 1322 1321 1319 1318 1316 1314 1312 1310 1308 1306 1304 1301 1299 1297 1295 1294 1292 1291 1290 1287 1284 1281 1280 1279 1277 1274 1271 1269 1265 1262 1258 1254 1251 1248 1245 1241 1238 1235 1232 1229 1228 1225 1223 1221 1219 1217 1215 1212 1209 1206 1204 1201 1199 1197 1194 1192 1190 1188 1186 1184 1183 1181 1180 1179 1178 1176 1175
1353 1351 1350 1348 1347 1345 1344 1342 1340 1338 1337 1335 1333 1331 1330 1328 1326 1324 1323 1321 1319 1317 1316 1314 1312 1310 1307 1305 1303 1301 1300 1298 1296 1294 1292 1290 1289 1288 1286 1283 1280 1278 1276 1275 1273 1271 1268 1265 1262 1259 1255 1251 1246 1243 1240 1238 1235 1232 1228 1225 1223 1221 1219 1218 1215 1213 1211 1208 1205 1202 1199 1197 1194 1192 1190 1188 1185 1184 1181 1179 1177 1176 1175 1173 1172 1170
1352 1350 1349 1347 1345 1344 1342 1340 1339 1337 1335 1334 1332 1330 1329 1327 1325 1323 1321 1320 1318 1316 1315 1313 1310 1308 1305 1303 1301 1300 1298 1296 1294 1292 1290 1289 1287 1285 1284 1282 1279 1276 1274 1273 1271 1269 1267 1264 1261 1258 1255 1251 1247 1243 1239 1236 1234 1232 1229 1225 1221 1218 1217 1215 1213 1211 1209 1206 1203 1200 1197 1194 1192 1190 1188 1185 1183 1181 1179 1176 1174 1172 1171 1170 1168 1166
1351 1349 1347 1346 1344 1343 1341 1340 1338 1336 1334 1332 1330 1329 1327 1326 1324 1322 1320 1318 1316 1315 1313 1311 1309 1306 1304 1302 1300 1298 1296 1294 1292 1290 1289 1287 1285 1284 1282 1280 1278 1275 1273 1271 1269 1267 1265 1263 1259 1256 1253 1250 1247 1243 1239 1236 1233 1232 1229 1226 1222 1218 1215 1213 1211 1209 1207 1204 1201 1199 1196 1193 1190 1187 1185 1183 1181 1178 1176 1174 1171 1169 1167 1166 1165 1163
1350 1348 1346 1345 1343 1341 1340 1338 1336 1335 1333 1331 1330 1328 1327 1325 1323 1321 1319 1317 1315 1313 1311 1310 1307 1305 1302 1299 1297 1296 1295 1293 1291 1289 1287 1285 1284 1282 1280 1278 1276 1274 1272 1269 1267 1265 1263 1261 1258 1254 1251 1249 1246 1242 1238 1234 1232 1231 1229 1226 1222 1218 1213 1210 1209 1208 1206 1203 1199 1197 1194 1191 1188 1185 1183 1180 1178 1175 1173 1171 1169 1166 1164 1163 1161 1160
1349 1347 1345 1344 1342 1340 1339 1337 1335 1334 1332 1330 1329 1327 1325 1324 1322 1320 1319 1316 1314 1312 1310 1308 1306 1304 1300 1297 1295 1293 1292 1291 1289 1288 1286 1284 1282 1280 1279 1277 1274 1273 1271 1269 1265 1263 1260 1258 1256 1253 1249 1247 1244 1241 1237 1234 1231 1229 1227 1225 1223 1219 1214 1209 1207 1205 1204 1201 1198 1195 1192 1189 1186 1183 1180 1177 1174 1172 1169 1167 1165 1163 1161 1160 1158 1157
1348 1346 1344 1343 1341 1340 1338 1336 1334 1333 1331 1330 1328 1326 1325 1323 1321 1320 1318 1315 1313 1311 1309 1307 1305 1302 1300 1297 1294 1292 1290 1289 1287 1286 1284 1282 1280 1279 1277 1275 1273 1271 1269 1267 1264 1261 1258 1255 1253 1250 1248 1246 1243 1240 1236 1233 1230 1228 1226 1224 1222 1220 1216 1211 1207 1204 1201 1199 1196 1194 1190 1188 1184 1181 1178 1174 1172 1169 1166 1164 1162 1160 1158 1157 1156 1154
1347 1345 1344 1342 1340 1338 1337 1335 1333 1332 1330 1329 1327 1325 1323 1322 1320 1318 1316 1315 1312 1310 1308 1306 1304 1301 1299 1296 1294 1291 1289 1286 1285 1283 1282 1280 1279 1278 1276 1274 1271 1269 1267 1265 1263 1260 1257 1254 1251 1248 1246 1244 1241 1239 1236 1233 1230 1227 1224 1222 1220 1218 1214 1211 1208 1204 1201 1198 1195 1192 1189 1186 1182 1179 1175 1172 1169 1166 1164 1161 1159 1157 1155 1154 1153 1151
1346 1344 1343 1341 1339 1338 1336 1335 1333 1331 1330 1328 1326 1324 1322 1320 1319 1317 1315 1314 1311 1309 1307 1305 1303 1301 1298 1295 1293 1290 1288 1285 1283 1281 1280 1278 1277 1275 1274 1272 1270 1268 1265 1263 1260 1258 1256 1253 1250 1247 1244 1242 1239 1237 1235 1232 1229 1226 1223 1221 1218 1215 1212 1209 1207 1204 1202 1198 1194 1190 1187 1184 1180 1177 1174 1170 1167 1164 1161 1159 1157 1155 1153 1151 1150 1149
1345 1344 1342 1340 1338 1337 1335 1334 1332 1331 1329 1327 1325 1323 1321 1319 1318 1316 1314 1312 1310 1308 1305 1304 1302 1300 1298 1295 1292 1290 1287 1285 1282 1280 1278 1277 1275 1274 1272 1270 1268 1266 1263 1261 1258 1256 1253 1251 1249 1246 1244 1241 1238 1235 1233 1231 1229 1226 1223 1220 1217 1214 1211 1208 1205 1203 1200 1198 1194 1189 1185 1182 1178 1175 1172 1169 1165 1162 1159 1156 1154 1152 1150 1149 1147 1146
1345 1343 1341 1339 1337 1336 1334 1333 1331 1330 1328 1326 1324 1322 1320 1318 1317 1315 1313 1311 1309 1307 1305 1303 1301 1299 1296 1294 1292 1290 1288 1285 1282 1279 1277 1275 1274 1272 1269 1268 1265 1263 1261 1259 1256 1253 1251 1249 1247 1245 1243 1241 1238 1234 1232 1230 1228 1225 1223 1219 1217 1214 1210 1207 1204 1202 1199 1196 1193 1189 1185 1182 1178 1174 1170 1167 1163 1160 1157 1154 1152 1150 1148 1146 1145 1143
1344 1342 1340 1338 1337 1335 1333 1332 1330 1329 1327 1325 1323 1321 1319 1317 1315 1314 1312 1310 1308 1306 1304 1302 1300 1298 1295 1293 1291 1289 1287 1285 1282 1280 1277 1275 1273 1270 1268 1266 1263 1261 1258 1256 1254 1251 1249 1246 1245 1243 1242 1239 1237 1234 1231 1229 1226 1224 1222 1219 1217 1214 1210 1206 1203 1200 1198 1194 1191 1188 1185 1182 1179 1175 1171 1167 1163 1159 1155 1152 1149 1147 1146 1144 1143 1141
1342 1341 1339 1338 1336 1335 1333 1331 1330 1328 1326 1324 1322 1320 1318 1316 1314 1313 1311 1309 1307 1305 1304 1301 1300 1297 1295 1292 1290 1288 1286 1284 1281 1279 1277 1274 1272 1270 1267 1264 1262 1259 1257 1254 1251 1249 1246 1244 1242 1241 1240 1238 1236 1234 1231 1228 1226 1223 1221 1219 1216 1213 1210 1206 1203 1200 1197 1194 1190 1187 1184 1180 1177 1174 1171 1167 1163 1159 1155 1151 1148 1145 1144 1142 1140 1139
1341 1340 1338 1337 1335 1334 1332 1330 1329 1327 1325 1323 1321 1319 1317 1315 1313 1311 1310 1308 1306 1304 1302 1300 1299 1297 1295 1292 1290 1287 1285 1283 1281 1279 1276 1274 1272 1269 1267 1264 1262 1259 1256 1253 1250 1248 1245 1242 1239 1238 1237 1237 1236 1234 1232 1229 1226 1223 1220 1217 1215 1213 1209 1206 1202 1199 1196 1193 1190 1186 1183 1180 1177 1174 1171 1167 1163 1159 1154 1150 1147 1144 1142 1140 1138 1136